Time,TemperatureF,DewpointF,PressureIn,WindDirection,WindDirectionDegrees,WindSpeedMPH,WindSpeedGustMPH,Humidity,HourlyPrecipIn,Conditions,Clouds,dailyrainin,SoftwareType,DateUTC
2013-02-15 00:00:00,20.8,8.0,29.12,ENE,77,13.4,29.5,57,0.00,,SCT100,0.00,VWS V14.01,2013-02-15 06:00:00,
2013-02-15 00:15:00,20.5,8.1,29.12,East,87,0.0,16.8,58,0.00,,FEW110,0.00,VWS V14.01,2013-02-15 06:15:00,
2013-02-15 00:45:00,19.6,6.4,29.12,NE,42,0.0,18.1,56,0.00,,FEW110,0.00,VWS V14.01,2013-02-15 06:45:00,
2013-02-15 01:00:00,19.0,5.5,29.12,ENE,77,0.0,10.7,55,0.00,,FEW110,0.00,VWS V14.01,2013-02-15 07:00:00,
2013-02-15 01:15:00,18.7,4.8,29.12,East,96,0.0,10.7,54,0.00,,FEW110,0.00,VWS V14.01,2013-02-15 07:15:00,
2013-02-15 01:30:00,18.3,4.9,29.12,ENE,59,0.0,12.1,55,0.00,,FEW110,0.00,VWS V14.01,2013-02-15 07:30:00,
2013-02-15 01:45:00,18.0,4.9,29.12,WSW,248,0.0,22.1,56,0.00,,FEW110,0.00,VWS V14.01,2013-02-15 07:45:00,
2013-02-15 02:00:00,17.8,5.1,29.12,North,5,0.0,9.4,57,0.00,,FEW110,0.00,VWS V14.01,2013-02-15 08:00:00,
2013-02-15 02:15:00,17.4,5.2,29.15,NNE,32,0.0,8.1,58,0.00,,CLR,0.00,VWS V14.01,2013-02-15 08:15:00,
2013-02-15 02:30:00,17.4,5.6,29.15,East,86,0.0,9.4,59,0.00,,CLR,0.00,VWS V14.01,2013-02-15 08:30:00,
2013-02-15 02:45:00,17.2,6.1,29.15,NE,56,0.0,0.0,61,0.00,,CLR,0.00,VWS V14.01,2013-02-15 08:45:00,
2013-02-15 03:00:00,16.9,6.1,29.15,NNW,346,0.0,0.0,62,0.00,,CLR,0.00,VWS V14.01,2013-02-15 09:00:00,
2013-02-15 03:15:00,16.7,6.3,29.15,East,94,0.0,0.0,63,0.00,,CLR,0.00,VWS V14.01,2013-02-15 09:15:00,
2013-02-15 03:30:00,16.5,6.8,29.15,ENE,64,0.0,0.0,65,0.00,,CLR,0.00,VWS V14.01,2013-02-15 09:30:00,
2013-02-15 03:45:00,14.9,5.3,29.15,ENE,64,0.0,0.0,65,0.00,,CLR,0.00,VWS V14.01,2013-02-15 09:45:00,
2013-02-15 04:00:00,14.9,5.9,29.15,NNW,341,0.0,0.0,67,0.00,,CLR,0.00,VWS V14.01,2013-02-15 10:00:00,
2013-02-15 04:15:00,14.5,5.9,29.15,NW,316,0.0,0.0,68,0.00,,CLR,0.00,VWS V14.01,2013-02-15 10:15:00,
2013-02-15 04:30:00,14.4,6.1,29.15,North,353,0.0,0.0,69,0.00,,CLR,0.00,VWS V14.01,2013-02-15 10:30:00,
2013-02-15 04:45:00,13.8,5.9,29.15,North,353,0.0,0.0,70,0.00,,CLR,0.00,VWS V14.01,2013-02-15 10:45:00,
2013-02-15 05:00:00,14.0,6.3,29.15,NNW,336,0.0,0.0,71,0.00,,CLR,0.00,VWS V14.01,2013-02-15 11:00:00,
2013-02-15 05:15:00,14.5,7.2,29.18,NNW,330,0.0,0.0,72,0.00,,CLR,0.00,VWS V14.01,2013-02-15 11:15:00,
2013-02-15 05:30:00,14.5,7.5,29.18,NNW,334,0.0,0.0,73,0.00,,CLR,0.00,VWS V14.01,2013-02-15 11:30:00,
2013-02-15 05:45:00,14.5,7.5,29.18,East,92,0.0,0.0,73,0.00,,CLR,0.00,VWS V14.01,2013-02-15 11:45:00,
2013-02-15 06:00:00,14.4,6.7,29.18,NNE,31,0.0,0.0,71,0.00,,CLR,0.00,VWS V14.01,2013-02-15 12:00:00,
2013-02-15 06:15:00,14.5,6.2,29.18,North,353,0.0,0.0,69,0.00,,CLR,0.00,VWS V14.01,2013-02-15 12:15:00,
2013-02-15 06:30:00,15.4,6.1,29.18,East,90,0.0,0.0,66,0.00,,CLR,0.00,VWS V14.01,2013-02-15 12:30:00,
2013-02-15 06:45:00,16.2,6.1,29.18,NE,54,0.0,0.0,64,0.00,,CLR,0.00,VWS V14.01,2013-02-15 12:45:00,
2013-02-15 07:00:00,17.2,6.5,29.18,North,357,0.0,0.0,62,0.00,,CLR,0.00,VWS V14.01,2013-02-15 13:00:00,
2013-02-15 07:15:00,17.6,6.4,29.18,NNE,18,0.0,0.0,61,0.00,,BKN036,0.00,VWS V14.01,2013-02-15 13:15:00,
2013-02-15 07:30:00,18.0,6.8,29.18,NNE,14,0.0,0.0,61,0.00,,BKN036,0.00,VWS V14.01,2013-02-15 13:30:00,
2013-02-15 07:45:00,18.1,7.0,29.18,NNW,341,0.0,0.0,61,0.00,,BKN036,0.00,VWS V14.01,2013-02-15 13:45:00,
2013-02-15 08:00:00,17.8,6.6,29.18,NE,43,0.0,0.0,61,0.00,,BKN036,0.00,VWS V14.01,2013-02-15 14:00:00,
2013-02-15 08:15:00,18.3,7.5,29.18,NNW,337,0.0,0.0,62,0.00,,,0.00,VWS V14.01,2013-02-15 14:15:00,
2013-02-15 08:30:00,19.2,8.0,29.18,NNE,21,0.0,0.0,61,0.00,,,0.00,VWS V14.01,2013-02-15 14:30:00,
2013-02-15 08:45:00,20.1,8.5,29.18,North,357,0.0,0.0,60,0.00,,,0.00,VWS V14.01,2013-02-15 14:45:00,
2013-02-15 09:00:00,21.0,9.3,29.18,NNE,32,0.0,0.0,60,0.00,,,0.00,VWS V14.01,2013-02-15 15:00:00,
2013-02-15 09:15:00,21.6,9.5,29.18,North,350,0.0,0.0,59,0.00,,FEW038,0.00,VWS V14.01,2013-02-15 15:15:00,
2013-02-15 09:30:00,22.8,10.3,29.18,NNW,345,0.0,8.1,58,0.00,,FEW038,0.00,VWS V14.01,2013-02-15 15:30:00,
2013-02-15 09:45:00,23.7,9.9,29.18,NNW,346,0.0,18.1,55,0.00,,FEW038,0.00,VWS V14.01,2013-02-15 15:45:00,
2013-02-15 10:00:00,23.9,10.1,29.18,North,357,0.0,12.1,55,0.00,,FEW038,0.00,VWS V14.01,2013-02-15 16:00:00,
2013-02-15 10:15:00,24.8,10.5,29.18,SW,235,0.0,10.7,54,0.00,,SCT200,0.00,VWS V14.01,2013-02-15 16:15:00,
2013-02-15 10:30:00,25.7,8.7,29.18,ESE,103,0.0,12.1,48,0.00,,SCT200,0.00,VWS V14.01,2013-02-15 16:30:00,
2013-02-15 10:45:00,26.4,8.0,29.18,NW,312,0.0,20.8,45,0.00,,SCT200,0.00,VWS V14.01,2013-02-15 16:45:00,
2013-02-15 11:00:00,27.7,8.6,29.18,ESE,107,0.0,8.1,44,0.00,,SCT200,0.00,VWS V14.01,2013-02-15 17:00:00,
2013-02-15 11:15:00,28.4,8.8,29.18,East,97,0.0,16.8,43,0.00,,BKN200,0.00,VWS V14.01,2013-02-15 17:15:00,
2013-02-15 11:30:00,29.5,9.2,29.18,NNE,15,0.0,8.1,42,0.00,,BKN200,0.00,VWS V14.01,2013-02-15 17:30:00,
2013-02-15 11:45:00,30.7,9.8,29.18,NNW,328,0.0,0.0,41,0.00,,BKN200,0.00,VWS V14.01,2013-02-15 17:45:00,
2013-02-15 12:00:00,30.9,10.0,29.18,SSW,212,0.0,12.1,41,0.00,,BKN200,0.00,VWS V14.01,2013-02-15 18:00:00,
2013-02-15 12:15:00,31.1,9.6,29.18,ENE,70,0.0,9.4,40,0.00,,OVC180,0.00,VWS V14.01,2013-02-15 18:15:00,
2013-02-15 12:30:00,31.5,9.9,29.15,West,280,0.0,0.0,40,0.00,,OVC180,0.00,VWS V14.01,2013-02-15 18:30:00,
2013-02-15 12:45:00,32.2,10.0,29.15,ENE,66,0.0,8.1,39,0.00,,OVC180,0.00,VWS V14.01,2013-02-15 18:45:00,
2013-02-15 13:00:00,32.9,10.7,29.15,NE,47,0.0,0.0,39,0.00,,OVC180,0.00,VWS V14.01,2013-02-15 19:00:00,
2013-02-15 13:15:00,33.8,11.5,29.15,SW,216,0.0,12.1,39,0.00,,OVC200,0.00,VWS V14.01,2013-02-15 19:15:00,
2013-02-15 13:30:00,33.6,10.7,29.12,NNE,27,0.0,0.0,38,0.00,,OVC200,0.00,VWS V14.01,2013-02-15 19:30:00,
2013-02-15 13:45:00,33.6,10.1,29.12,SW,234,0.0,12.1,37,0.00,,OVC200,0.00,VWS V14.01,2013-02-15 19:45:00,
2013-02-15 14:00:00,34.7,11.1,29.12,SW,224,0.0,0.0,37,0.00,,OVC200,0.00,VWS V14.01,2013-02-15 20:00:00,
2013-02-15 14:15:00,34.2,10.6,29.12,NNW,344,0.0,0.0,37,0.00,,OVC100,0.00,VWS V14.01,2013-02-15 20:15:00,
2013-02-15 14:30:00,33.6,10.7,29.12,North,5,0.0,9.4,38,0.00,,OVC100,0.00,VWS V14.01,2013-02-15 20:30:00,
2013-02-15 14:45:00,34.5,12.7,29.12,SW,234,0.0,0.0,40,0.00,,OVC100,0.00,VWS V14.01,2013-02-15 20:45:00,
2013-02-15 15:00:00,34.3,12.0,29.12,North,357,0.0,0.0,39,0.00,,OVC100,0.00,VWS V14.01,2013-02-15 21:00:00,
2013-02-15 15:15:00,34.3,12.5,29.12,NNE,15,0.0,0.0,40,0.00,,OVC180,0.00,VWS V14.01,2013-02-15 21:15:00,
2013-02-15 15:30:00,33.6,11.9,29.12,NNW,341,0.0,0.0,40,0.00,,OVC180,0.00,VWS V14.01,2013-02-15 21:30:00,
2013-02-15 15:45:00,34.0,12.2,29.12,NNW,328,0.0,0.0,40,0.00,,OVC180,0.00,VWS V14.01,2013-02-15 21:45:00,
2013-02-15 16:00:00,33.4,11.7,29.12,NE,34,0.0,0.0,40,0.00,,OVC180,0.00,VWS V14.01,2013-02-15 22:00:00,
2013-02-15 16:15:00,32.7,11.6,29.12,ENE,72,0.0,0.0,41,0.00,,OVC100,0.00,VWS V14.01,2013-02-15 22:15:00,
2013-02-15 16:30:00,31.6,11.2,29.12,NE,48,0.0,0.0,42,0.00,,OVC100,0.00,VWS V14.01,2013-02-15 22:30:00,
2013-02-15 16:45:00,31.8,11.4,29.12,WSW,244,0.0,0.0,42,0.00,,OVC100,0.00,VWS V14.01,2013-02-15 22:45:00,
2013-02-15 17:00:00,32.2,12.2,29.12,NE,48,0.0,0.0,43,0.00,,OVC100,0.00,VWS V14.01,2013-02-15 23:00:00,
2013-02-15 17:15:00,30.9,12.6,29.12,ENE,67,0.0,0.0,46,0.00,,OVC100,0.00,VWS V14.01,2013-02-15 23:15:00,
2013-02-15 17:30:00,30.6,13.2,29.12,North,353,0.0,0.0,48,0.00,,OVC100,0.00,VWS V14.01,2013-02-15 23:30:00,
2013-02-15 17:45:00,28.8,14.2,29.12,ENE,64,0.0,0.0,54,0.00,,OVC100,0.00,VWS V14.01,2013-02-15 23:45:00,
2013-02-15 18:00:00,28.2,15.8,29.12,NE,48,0.0,0.0,59,0.00,,OVC100,0.00,VWS V14.01,2013-02-16 00:00:00,
2013-02-15 18:15:00,27.9,16.9,29.12,East,82,0.0,0.0,63,0.00,,,0.00,VWS V14.01,2013-02-16 00:15:00,
2013-02-15 18:30:00,27.1,19.0,29.12,ENE,65,0.0,9.4,71,0.00,,,0.00,VWS V14.01,2013-02-16 00:30:00,
2013-02-15 18:45:00,26.4,19.9,29.15,ENE,65,0.0,8.1,76,0.00,,,0.00,VWS V14.01,2013-02-16 00:45:00,
2013-02-15 19:00:00,26.2,20.6,29.15,ENE,69,0.0,0.0,79,0.00,,,0.00,VWS V14.01,2013-02-16 01:00:00,
2013-02-15 19:15:00,25.9,20.6,29.15,NE,52,0.0,0.0,80,0.00,,,0.00,VWS V14.01,2013-02-16 01:15:00,
2013-02-15 19:30:00,25.5,20.5,29.15,NNE,30,0.0,0.0,81,0.00,,,0.00,VWS V14.01,2013-02-16 01:30:00,
2013-02-15 19:45:00,25.5,20.8,29.15,ENE,62,0.0,0.0,82,0.00,,,0.00,VWS V14.01,2013-02-16 01:45:00,
2013-02-15 20:00:00,25.5,20.8,29.15,ENE,63,0.0,0.0,82,0.00,,,0.00,VWS V14.01,2013-02-16 02:00:00,
2013-02-15 20:15:00,24.8,20.4,29.15,NE,47,0.0,14.1,83,0.00,,,0.00,VWS V14.01,2013-02-16 02:15:00,
2013-02-15 20:30:00,24.1,20.0,29.15,NNE,28,0.0,0.0,84,0.00,,,0.00,VWS V14.01,2013-02-16 02:30:00,
2013-02-15 20:45:00,23.4,19.2,29.18,East,101,0.0,0.0,84,0.00,,,0.00,VWS V14.01,2013-02-16 02:45:00,
2013-02-15 21:00:00,22.8,18.7,29.15,NNE,32,0.0,0.0,84,0.00,,,0.00,VWS V14.01,2013-02-16 03:00:00,
2013-02-15 21:15:00,21.9,17.6,29.15,NNE,32,0.0,0.0,83,0.00,,,0.00,VWS V14.01,2013-02-16 03:15:00,
2013-02-15 21:30:00,21.4,17.0,29.15,NNE,32,0.0,0.0,83,0.00,,,0.00,VWS V14.01,2013-02-16 03:30:00,
2013-02-15 21:45:00,21.0,17.0,29.18,NNE,33,0.0,0.0,84,0.00,,,0.00,VWS V14.01,2013-02-16 03:45:00,
2013-02-15 22:00:00,20.8,16.5,29.18,NE,45,0.0,0.0,83,0.00,,,0.00,VWS V14.01,2013-02-16 04:00:00,
2013-02-15 22:15:00,20.8,16.5,29.18,ENE,64,0.0,0.0,83,0.00,,,0.00,VWS V14.01,2013-02-16 04:15:00,
2013-02-15 22:30:00,21.4,16.8,29.18,ENE,77,0.0,0.0,82,0.00,,,0.00,VWS V14.01,2013-02-16 04:30:00,
2013-02-15 22:45:00,21.9,17.3,29.18,NE,51,0.0,0.0,82,0.00,,,0.00,VWS V14.01,2013-02-16 04:45:00,
2013-02-15 23:00:00,22.3,17.6,29.18,ENE,73,0.0,0.0,82,0.00,,,0.00,VWS V14.01,2013-02-16 05:00:00,
2013-02-15 23:15:00,22.3,17.4,29.15,East,80,0.0,0.0,81,0.00,,,0.00,VWS V14.01,2013-02-16 05:15:00,
2013-02-15 23:30:00,22.3,17.1,29.18,NE,51,0.0,0.0,80,0.00,,,0.00,VWS V14.01,2013-02-16 05:30:00,
2013-02-15 23:45:00,22.3,16.8,29.15,NE,47,0.0,0.0,79,0.00,,,0.00,VWS V14.01,2013-02-16 05:45:00,